Cosmos 1869 - Orbit

View from above orbital plane
View from above orbital plane
View from above satellite
View from above satellite

Ground track
Ground track

The orbit data is extracted from the following two-line orbital elements,

1 18214U 87062A   13137.86850356  .00002297  00000-0  17533-3 0  9144
2 18214 082.5053 101.9733 0012712 228.0381 131.9761 15.01496160404179
Epoch (UTC): 17 May 2013 20:50:38
Eccentricity: 0.0012712
inclination: 82.5053°
perigee height: 553 km
apogee height: 571 km
right ascension of ascending node: 101.9733°
argument of perigee: 228.0381°
revolutions per day: 15.01496160
mean anomaly at epoch: 131.9761°
orbit number at epoch: 40417

The dashed part of the orbit path shows where the satellite is in the earth's shadow,  

Developed and maintained by Chris Peat, Heavens-Above GmbH. Please read the updated FAQ before sending e-mail. Imprint. DLR